[[{"header":{"parameterUnit":"m.s-1","parameterCategory":1,"la1":30.2991,"la2":30.254,"lo1":-89.0895,"lo2":-89.0444,"dy":0.0017,"dx":0.0017,"nx":28,"ny":28,"refTime":"2024-05-13T21:00:00:Z","depth":0,"parameterNumber":2,"parameterNumberName":"U-component_of_WINDS"},"data":[0,0,0,0,0,0,0,0,0,0,0,0,0,0,0,0,0,0,0,0,0,0,0,0,0,0,0,0,0,0,0,0,0,0,0,0,0,0,0,0,0,0,0,0,0,0,0,0,0,0,0,0,0,0,0,0,0,0,1.1151,1.1151,0,1.1131,1.1131,1.1131,1.1089,1.1088,1.1087,1.1086,1.1067,1.1067,1.1067,0,0,0,0,0,0,0,0,0,0,0,0,0,1.1153,1.1153,1.1151,1.1151,1.1151,1.1131,1.1131,1.1131,1.1089,1.1088,1.1087,1.1086,1.1066,1.1067,1.1067,0,0,0,0,0,0,0,0,0,0,0,0,0,1.1145,1.1153,1.1151,1.1127,1.1125,1.1131,1.1131,1.1131,1.1089,1.1088,1.1086,1.1085,1.1066,1.1067,1.1067,1.1095,0,0,1.1068,1.1069,0,0,0,0,0,0,0,0,1.1145,1.1145,1.1131,1.1129,1.1126,1.1111,1.1124,1.1119,1.1089,1.1103,1.1086,1.1085,1.1082,1.1081,1.1081,1.1094,1.1094,1.1068,1.1069,1.1069,1.1069,0,0,0,0,0,0,0,1.1146,1.1145,1.1143,1.1131,1.1128,1.1118,1.1115,1.1123,1.11,1.1101,1.1098,1.1096,1.1081,1.108,1.108,1.1093,1.1068,1.1069,1.1069,1.1069,1.1128,1.1129,0,0,0,0,0,0,1.115,1.1146,1.1144,1.1143,1.1133,1.1119,1.1116,1.1117,1.11,1.1096,1.1098,1.1095,1.108,1.1079,1.1079,1.111,1.1069,1.1069,1.107,1.1127,1.1128,1.113,0,0,0,0,0,0,1.115,1.115,1.1145,1.1144,1.1142,1.112,1.1122,1.1118,1.1117,1.1097,1.1093,1.1101,1.1079,1.1078,1.1091,1.1109,1.1069,1.107,1.1125,1.1127,1.1129,1.1173,0,0,0,0,0,0,1.115,1.115,1.1161,1.1144,1.1142,1.1158,1.1123,1.1118,1.1118,1.1113,1.1099,1.1096,1.1078,1.1091,1.1092,1.1109,1.107,1.1124,1.1126,1.1129,1.117,1.1176,1.1181,0,0,0,0,0,1.115,1.1174,1.1162,1.1162,1.1155,1.1159,1.1158,1.1137,1.1119,1.1129,1.1116,1.1096,1.1107,1.1093,1.1093,1.111,1.1122,1.1126,1.1128,1.1167,1.1175,1.1181,0,0,0,0,0,0,1.1194,1.1172,1.1157,1.1177,1.117,1.1151,1.1164,1.1146,1.1144,1.114,1.1115,1.1112,1.1128,1.1121,1.1105,1.1136,1.1111,1.1115,1.114,1.1148,1.1153,1.1155,1.1071,0,0,0,0,0,1.1206,1.1211,1.1191,1.121,1.1207,1.1186,1.1187,1.1172,1.1164,1.1161,1.1149,1.1142,1.1143,1.1145,1.1146,1.1168,1.1164,1.1181,1.1186,1.1191,1.1194,1.1205,1.1211,1.114,1.114,1.114,0,0,1.1231,1.1219,1.1224,1.1218,1.1211,1.1217,1.1184,1.1191,1.1195,1.1162,1.1173,1.1164,1.1155,1.1172,1.1179,1.1166,1.1213,1.1195,1.1199,1.1199,1.1209,1.1215,1.1221,1.1142,1.1141,1.1141,0,0,1.1278,1.127,1.1285,1.1278,1.1267,1.1253,1.1257,1.1241,1.1233,1.1244,1.1219,1.1223,1.1227,1.1221,1.1218,1.1263,1.1243,1.1264,1.1294,1.1305,1.131,1.1315,1.133,1.1336,1.1267,1.1267,1.1267,0,1.1311,1.1317,1.1294,1.1303,1.1301,1.1271,1.1284,1.1279,1.127,1.1269,1.1255,1.1258,1.125,1.1265,1.1276,1.1275,1.1278,1.1265,1.1311,1.1316,1.132,1.1334,1.134,1.1269,1.1269,1.1269,1.1268,0,1.1357,1.1362,1.1375,1.1365,1.1365,1.1376,1.1355,1.1357,1.1342,1.1329,1.134,1.1329,1.1326,1.1329,1.1314,1.1342,1.1334,1.1316,1.129,1.133,1.1343,1.1348,1.1273,1.1272,1.1271,1.1271,0,0,1.1432,1.1409,1.1414,1.1409,1.1394,1.1398,1.1408,1.1404,1.1407,1.1401,1.1408,1.1412,1.1394,1.1392,1.1376,1.1385,1.142,1.1366,1.1365,1.1376,1.1449,1.1463,1.1469,1.1407,1.1408,1.1409,1.145,0,1.1475,1.149,1.1469,1.1489,1.1493,1.1464,1.1472,1.1464,1.1453,1.1454,1.1441,1.1444,1.1422,1.1419,1.1427,1.1414,1.1434,1.1411,1.1414,1.1414,1.1416,1.1476,1.149,1.1529,1.1455,1.1456,1.1456,0,1.1528,1.1524,1.1544,1.1527,1.1528,1.1536,1.1531,1.1533,1.1524,1.1514,1.1511,1.1492,1.15,1.1475,1.1486,1.1471,1.1471,1.1464,1.1465,1.1464,1.1437,1.1476,1.1541,1.1547,1.1464,1.1463,1.1463,0,1.1579,1.1579,1.159,1.1587,1.1569,1.1575,1.1567,1.1556,1.1555,1.1551,1.155,1.1548,1.1546,1.1544,1.1525,1.1509,1.1537,1.1511,1.153,1.153,1.1537,1.1537,1.1602,1.1538,1.1538,1.1538,1.1538,0,1.163,1.1643,1.1613,1.162,1.1634,1.161,1.1624,1.1614,1.1604,1.1608,1.1584,1.1588,1.1563,1.1565,1.155,1.156,1.156,1.1553,1.1548,1.1554,1.1555,1.1554,1.155,1.1539,1.1539,1.1539,1.1538,0,1.1689,1.167,1.168,1.1662,1.1657,1.1668,1.1652,1.1658,1.1644,1.165,1.165,1.1629,1.163,1.161,1.1608,1.1598,1.1615,1.1606,1.1618,1.1615,1.1634,1.1632,1.1701,1.1708,1.164,1.164,1.1641,0,1.1722,1.1731,1.1713,1.1714,1.1708,1.171,1.1709,1.1686,1.1685,1.1675,1.1682,1.168,1.1678,1.1681,1.1666,1.1663,1.1654,1.1678,1.1653,1.1659,1.1653,1.1653,1.1653,1.1683,1.1684,1.1684,1.1685,0,1.1783,1.1772,1.1771,1.1767,1.1766,1.1762,1.1756,1.1758,1.1732,1.1733,1.1734,1.1732,1.1729,1.1728,1.1722,1.1715,1.1696,1.1693,1.1697,1.1703,1.1709,1.1705,1.1631,1.1691,1.1691,1.169,1.169,1.169,1.1829,1.1836,1.1824,1.1823,1.1816,1.1811,1.1815,1.1802,1.1802,1.1797,1.1783,1.1786,1.1775,1.1766,1.176,1.1762,1.175,1.1756,1.1757,1.1759,1.1762,1.1709,1.1761,1.1761,1.176,1.176,1.176,0,1.1887,1.1878,1.1878,1.187,1.187,1.1851,1.1843,1.1844,1.1847,1.1839,1.1837,1.1837,1.1836,1.182,1.1817,1.1821,1.1812,1.1821,1.182,1.1819,1.1773,1.177,1.1828,1.1828,1.1828,1.1828,1.1828,1.1828,1.1918,1.1927,1.1916,1.1922,1.1912,1.1914,1.1911,1.1906,1.1899,1.1901,1.1899,1.1889,1.1878,1.1873,1.1871,1.1867,1.1867,1.1878,1.1871,1.1829,1.1822,1.1816,1.1812,1.1879,1.1879,1.1916,1.1916,1.1917]},{"header":{"parameterUnit":"m.s-1","parameterCategory":1,"la1":30.2991,"la2":30.254,"lo1":-89.0895,"lo2":-89.0444,"dy":0.0017,"dx":0.0017,"nx":28,"ny":28,"refTime":"2024-05-13T21:00:00:Z","depth":0,"parameterNumber":3,"parameterNumberName":"V-component_of_WINDS"},"data":[0,0,0,0,0,0,0,0,0,0,0,0,0,0,0,0,0,0,0,0,0,0,0,0,0,0,0,0,0,0,0,0,0,0,0,0,0,0,0,0,0,0,0,0,0,0,0,0,0,0,0,0,0,0,0,0,0,0,5.1217,5.1217,0,5.1264,5.1264,5.1265,5.1215,5.1213,5.1212,5.121,5.1258,5.1261,5.1264,0,0,0,0,0,0,0,0,0,0,0,0,0,5.1085,5.1088,5.1217,5.1217,5.1218,5.1264,5.1264,5.1265,5.1216,5.1213,5.1211,5.1209,5.1257,5.1261,5.1264,0,0,0,0,0,0,0,0,0,0,0,0,0,5.1138,5.1089,5.1217,5.1199,5.1198,5.1264,5.1264,5.1265,5.1216,5.1213,5.121,5.1208,5.1256,5.126,5.1265,5.135,0,0,5.1279,5.1281,0,0,0,0,0,0,0,0,5.1136,5.1143,5.1201,5.12,5.1199,5.1231,5.1236,5.1294,5.1217,5.1209,5.121,5.1206,5.1251,5.1256,5.1271,5.1353,5.1355,5.1279,5.1282,5.1284,5.1285,0,0,0,0,0,0,0,5.1132,5.1141,5.1235,5.1202,5.1201,5.1189,5.1193,5.1246,5.1246,5.121,5.1206,5.1212,5.125,5.1267,5.1272,5.1355,5.1279,5.1283,5.1286,5.1288,5.151,5.1513,0,0,0,0,0,0,5.113,5.1138,5.1234,5.1237,5.116,5.1194,5.1198,5.1224,5.1245,5.1246,5.1215,5.121,5.126,5.1267,5.1273,5.1374,5.1284,5.1288,5.1291,5.1506,5.151,5.1514,0,0,0,0,0,0,5.1128,5.1139,5.1232,5.1187,5.1198,5.1199,5.1227,5.1226,5.1242,5.1249,5.1249,5.1232,5.1258,5.1267,5.1332,5.1375,5.129,5.1294,5.1503,5.1508,5.1512,5.1577,0,0,0,0,0,0,5.1124,5.1138,5.1171,5.1188,5.12,5.1289,5.123,5.1229,5.125,5.1245,5.1265,5.1265,5.1257,5.1325,5.1336,5.138,5.1298,5.1499,5.1505,5.151,5.1571,5.1584,5.1594,0,0,0,0,0,5.1119,5.1187,5.1173,5.1184,5.124,5.1292,5.1299,5.1288,5.1254,5.1287,5.1291,5.1265,5.1369,5.1332,5.1344,5.139,5.1496,5.1503,5.151,5.1566,5.1581,5.1594,0,0,0,0,0,0,5.1175,5.1189,5.1173,5.1248,5.1269,5.1283,5.1324,5.1304,5.1335,5.1328,5.1313,5.1318,5.1386,5.1395,5.1353,5.1474,5.1427,5.1437,5.1466,5.148,5.1492,5.1487,5.1302,0,0,0,0,0,5.1196,5.1237,5.1247,5.1312,5.1324,5.1322,5.1344,5.1334,5.1355,5.1363,5.1372,5.1394,5.1432,5.1457,5.1492,5.1573,5.1577,5.1611,5.1623,5.1632,5.164,5.1684,5.1699,5.1537,5.1537,5.1537,0,0,5.124,5.1253,5.1279,5.1324,5.1339,5.1381,5.133,5.1377,5.1408,5.1371,5.1432,5.144,5.1463,5.1536,5.1569,5.1545,5.1686,5.1641,5.1649,5.1652,5.1693,5.1708,5.1722,5.1542,5.1541,5.154,0,0,5.1341,5.1355,5.1411,5.1427,5.1451,5.1449,5.1463,5.1481,5.1484,5.1546,5.1519,5.1556,5.1621,5.1639,5.1656,5.1766,5.1743,5.1778,5.1838,5.188,5.1893,5.1904,5.1943,5.1957,5.1787,5.1787,5.1787,0,5.1392,5.1454,5.1442,5.1491,5.1511,5.148,5.1537,5.1553,5.1587,5.1602,5.1576,5.1658,5.1671,5.1748,5.1775,5.179,5.1805,5.1775,5.1892,5.1903,5.1914,5.195,5.1965,5.1791,5.179,5.179,5.179,0,5.1515,5.1559,5.1602,5.1635,5.1661,5.1714,5.171,5.1737,5.1725,5.1727,5.179,5.1806,5.1844,5.1862,5.185,5.1937,5.1922,5.1895,5.1846,5.1933,5.1967,5.1981,5.1797,5.1795,5.1794,5.1793,0,0,5.165,5.1678,5.1693,5.1708,5.1733,5.1766,5.1818,5.1855,5.1879,5.1904,5.1947,5.2004,5.1978,5.1998,5.1989,5.2027,5.2112,5.1995,5.1995,5.2015,5.2208,5.2228,5.2244,5.2098,5.2101,5.2103,5.2206,0,5.1751,5.184,5.1831,5.1916,5.1956,5.1928,5.1973,5.1993,5.1997,5.2032,5.2036,5.2076,5.2041,5.2052,5.2089,5.2094,5.2151,5.2087,5.2137,5.2139,5.213,5.2262,5.2283,5.238,5.2219,5.2222,5.2223,0,5.1879,5.1909,5.1998,5.2017,5.2033,5.2074,5.2107,5.2141,5.2164,5.2164,5.2187,5.2172,5.2224,5.2177,5.2249,5.2206,5.2226,5.2232,5.2236,5.2239,5.2185,5.2268,5.241,5.2425,5.2244,5.2243,5.2241,0,5.1968,5.203,5.2091,5.2105,5.2129,5.2158,5.2169,5.2189,5.2212,5.2242,5.2257,5.2293,5.2312,5.234,5.2335,5.2301,5.2408,5.2361,5.241,5.241,5.2432,5.243,5.2579,5.2448,5.2448,5.2447,5.2447,0,5.208,5.2135,5.2131,5.2168,5.223,5.222,5.2281,5.2289,5.2307,5.2346,5.2325,5.2361,5.2353,5.239,5.2387,5.2447,5.2456,5.2458,5.2456,5.2459,5.2458,5.2471,5.2464,5.2451,5.245,5.2449,5.2449,0,5.2188,5.2188,5.2252,5.227,5.2276,5.232,5.2335,5.2371,5.2373,5.2423,5.2434,5.2438,5.2481,5.2479,5.2527,5.2525,5.2599,5.259,5.2591,5.2588,5.2637,5.2633,5.2798,5.2819,5.2675,5.2676,5.2678,0,5.2259,5.2301,5.2323,5.2348,5.2361,5.2401,5.2424,5.2417,5.2442,5.2472,5.2504,5.2544,5.2576,5.2646,5.2653,5.269,5.2681,5.2737,5.2687,5.2689,5.2681,5.2679,5.2683,5.2746,5.2748,5.2749,5.275,0,5.2385,5.2383,5.2417,5.2453,5.2481,5.2509,5.2534,5.2555,5.255,5.258,5.2623,5.2648,5.2698,5.2738,5.2774,5.2786,5.2768,5.2766,5.2779,5.2782,5.2781,5.2782,5.2616,5.2762,5.2761,5.276,5.2759,5.2759,5.2476,5.2512,5.2533,5.2573,5.2591,5.2615,5.2649,5.2657,5.2693,5.2732,5.2726,5.2774,5.2797,5.2843,5.2858,5.2896,5.2877,5.2896,5.2901,5.2906,5.2911,5.2776,5.2903,5.2903,5.2902,5.2902,5.2902,0,5.26,5.2613,5.2649,5.2685,5.2717,5.2697,5.2724,5.2751,5.2794,5.2817,5.2849,5.2899,5.2939,5.295,5.2988,5.3017,5.3009,5.3027,5.3024,5.3027,5.2926,5.2911,5.3032,5.3032,5.3032,5.3032,5.3032,5.3032,5.2668,5.2728,5.2729,5.2798,5.281,5.2857,5.2874,5.2897,5.2915,5.2971,5.3004,5.3011,5.303,5.3069,5.3105,5.3107,5.3122,5.3143,5.3142,5.3048,5.3034,5.3022,5.3007,5.3147,5.3147,5.324,5.3241,5.3242]}]]